FW2285 Weather Reports


Display with metric or nautical units.
time (UTC)temp
F
wind
direction
speed
MPH
gust
MPH
rain 1hr
in
rain 24hr
in
rain mn
in
humidity
%
barometer
mb
20260510214526 68 5 0.0 3.0 0.00 0.00 0.00 23 1022.1
20260510213022 68 283 1.0 8.0 0.00 0.00 0.00 18 1022.1
20260510211530 67 34 2.0 8.0 0.00 0.00 0.00 18 1022.1
20260510210020 68 30 1.0 5.0 0.00 0.00 0.00 24 1022.2
20260510204531 68 291 1.0 5.0 0.00 0.00 0.00 24 1022.2
20260510203017 66 289 1.0 4.0 0.00 0.00 0.00 24 1022.5
20260510201517 66 21 1.0 6.0 0.00 0.00 0.00 19 1022.5
20260510200016 66 349 0.0 3.0 0.00 0.00 0.00 24 1022.7
20260510194516 66 324 1.0 4.0 0.00 0.00 0.00 26 1022.9
20260510193015 65 248 0.0 5.0 0.00 0.00 0.00 28 1022.8
20260510191514 66 293 1.0 5.0 0.00 0.00 0.00 22 1023.0
20260510190017 66 44 1.0 4.0 0.00 0.00 0.00 21 1023.0
20260510184512 66 15 1.0 7.0 0.00 0.00 0.00 25 1022.7
20260510183011 64 325 1.0 5.0 0.00 0.00 0.00 20 1022.7
20260510181509 64 39 1.0 8.0 0.00 0.00 0.00 19 1023.1
20260510180009 64 300 1.0 6.0 0.00 0.00 0.00 23 1023.1
20260510174509 64 331 3.0 9.0 0.00 0.00 0.00 23 1022.9
20260510173007 65 349 3.0 8.0 0.00 0.00 0.00 22 1022.9
20260510171507 64 28 2.0 4.0 0.00 0.00 0.00 24 1022.7
20260510170006 65 360 3.0 12.0 0.00 0.00 0.00 21 1022.7
20260510164505 64 44 2.0 8.0 0.00 0.00 0.00 24 1022.6
20260510163004 64 46 2.0 5.0 0.00 0.00 0.00 22 1022.6
20260510161503 64 53 1.0 5.0 0.00 0.00 0.00 25 1022.7
20260510160006 62 88 2.0 6.0 0.00 0.00 0.00 25 1023.0
20260510154501 62 34 1.0 4.0 0.00 0.00 0.00 27 1023.1
20260510153101 61 44 2.0 5.0 0.00 0.00 0.00 24 1022.4
20260510151600 60 54 2.0 7.0 0.00 0.00 0.00 25 1022.4
20260510150059 60 304 1.0 8.0 0.00 0.00 0.00 28 1022.4
20260510144607 59 83 3.0 8.0 0.00 0.00 0.00 27 1022.6
20260510143058 59 23 2.0 5.0 0.00 0.00 0.00 27 1022.8
20260510141556 58 32 2.0 6.0 0.00 0.00 0.00 28 1022.7
20260510140053 58 328 1.0 9.0 0.00 0.00 0.00 31 1022.3
20260510134553 57 36 2.0 4.0 0.00 0.00 0.00 31 1022.1
20260510133050 55 47 1.0 5.0 0.00 0.00 0.00 35 1022.0
20260510131550 54 11 0.0 3.0 0.00 0.00 0.00 33 1021.7
20260510130047 54 34 1.0 6.0 0.00 0.00 0.00 33 1021.6
20260510124547 54 34 2.0 5.0 0.00 0.00 0.00 33 1021.3
20260510123042 54 317 1.0 6.0 0.00 0.00 0.00 33 1021.1
20260510121539 54 42 0.0 6.0 0.00 0.00 0.00 33 1020.6
20260510120037 54 32 0.0 5.0 0.00 0.00 0.00 33 1020.0
20260510114535 54 162 1.0 4.0 0.00 0.00 0.00 30 1019.9
20260510113039 54 83 1.0 5.0 0.00 0.00 0.00 31 1019.8
20260510111532 55 343 1.0 5.0 0.00 0.00 0.00 31 1019.7
20260510110044 55 28 1.0 4.0 0.00 0.01 0.00 32 1019.5
20260510104528 55 49 1.0 4.0 0.00 0.01 0.00 31 1019.4
20260510103028 55 41 1.0 5.0 0.00 0.01 0.00 31 1019.0
20260510101523 56 39 2.0 5.0 0.00 0.01 0.00 32 1018.7
20260510100021 56 287 1.0 6.0 0.00 0.01 0.00 32 1018.5
20260510094533 56 54 1.0 5.0 0.00 0.01 0.00 31 1018.3
20260510093020 56 34 1.0 8.0 0.00 0.01 0.00 32 1018.1
20260510091514 57 46 3.0 8.0 0.00 0.01 0.00 33 1017.8
20260510090014 57 28 1.0 5.0 0.00 0.01 0.00 38 1018.4
20260510084510 58 29 0.0 4.0 0.00 0.01 0.00 41 1017.9
20260510083007 59 43 2.0 6.0 0.00 0.01 0.00 35 1017.8
20260510081506 59 14 2.0 5.0 0.00 0.01 0.00 36 1017.4
20260510080010 59 20 0.0 3.0 0.00 0.01 0.00 41 1017.5
20260510074601 59 32 0.0 5.0 0.00 0.01 0.00 39 1017.2
20260510073100 59 360 2.0 5.0 0.00 0.01 0.00 41 1016.9
20260510071554 60 31 0.0 3.0 0.00 0.01 0.00 42 1016.5
20260510064555 61 44 0.0 3.0 0.00 0.01 0.00 43 1016.3
20260510063050 61 37 0.0 2.0 0.00 0.01 0.00 46 1016.1
20260510061547 61 38 0.0 1.0 0.00 0.01 0.00 45 1016.2
20260510060047 63 38 0.0 3.0 0.00 0.01 0.00 43 1015.7
20260510054542 63 38 0.0 2.0 0.00 0.01 0.00 41 1015.3
20260510053041 64 42 0.0 3.0 0.00 0.01 0.00 40 1015.1
20260510051538 64 42 0.0 1.0 0.00 0.01 0.00 40 1015.0
20260510050040 64 42 0.0 0.0 0.00 0.01 0.01 41 1014.9
20260510044534 64 42 0.0 0.0 0.00 0.01 0.01 40 1014.7
20260510043033 65 45 1.0 3.0 0.00 0.01 0.01 37 1014.5
20260510041530 66 49 0.0 2.0 0.00 0.01 0.01 36 1014.3
20260510040029 66 49 0.0 2.0 0.00 0.01 0.01 37 1014.0
20260510034527 66 9 0.0 4.0 0.00 0.01 0.01 36 1013.7
20260510033031 67 21 0.0 5.0 0.00 0.01 0.01 35 1013.8
20260510031527 68 22 2.0 6.0 0.00 0.01 0.01 33 1013.3
20260510030023 68 350 3.0 10.0 0.00 0.01 0.01 36 1013.2
20260510024521 67 322 0.0 0.0 0.00 0.01 0.01 44 1012.3
20260510023018 67 322 0.0 0.0 0.00 0.01 0.01 41 1011.7
20260510021536 68 322 0.0 1.0 0.00 0.01 0.01 41 1011.3
20260510020013 69 322 0.0 4.0 0.00 0.01 0.01 38 1010.7
20260510014526 69 323 0.0 2.0 0.00 0.01 0.01 38 1010.9
20260510013011 70 232 2.0 5.0 0.00 0.01 0.01 35 1010.8
20260510011515 71 355 1.0 10.0 0.00 0.01 0.01 36 1010.5
20260510010020 71 109 2.0 10.0 0.00 0.01 0.01 34 1010.3
20260510004509 72 288 1.0 5.0 0.00 0.01 0.01 34 1010.3
20260510003008 72 319 2.0 7.0 0.00 0.01 0.01 34 1009.9
20260510001507 72 336 0.0 4.0 0.00 0.01 0.01 37 1009.6
20260510000007 72 300 2.0 7.0 0.00 0.01 0.01 35 1009.5
20260509234509 73 313 1.0 5.0 0.00 0.01 0.01 36 1009.7
20260509233006 73 322 1.0 6.0 0.00 0.01 0.01 34 1009.8
20260509231504 74 13 1.0 4.0 0.00 0.01 0.01 32 1009.7
20260509230013 74 302 2.0 8.0 0.00 0.02 0.01 31 1009.3
20260509224503 75 299 4.0 10.0 0.00 0.02 0.01 29 1009.1
20260509223002 78 257 4.0 17.0 0.00 0.02 0.01 25 1008.6
20260509221502 81 268 4.0 11.0 0.00 0.02 0.01 21 1008.0
20260509220002 82 139 4.0 10.0 0.00 0.13 0.01 18 1007.8